When you browse on this site, cookies collect data to enhance your experience and personalize the content and advertising you see.
Visit our Privacy Policy to learn more. By continuing to use the site, you agree to this use of cookies and data.
  • In Slovakia
  • List of Countries
  • For 7 days
  • Water Temperature
  • Weather Map
  • Weather Widgets
  • user-avatar
    Login

    Hourly Weather Annaba

    Today, 19 September, Thursday

    Time Temperature Precipitation Wind Pressure Humidity
    00:00 +26°C° 0.1 mm 2 mps 760 mmHg 69%
    01:00 +26°C° 0.1 mm 1 mps 760 mmHg 67%
    02:00 +26°C° 0.2 mm 1 mps 759 mmHg 67%
    03:00 +26°C° 0.2 mm 2 mps 759 mmHg 67%
    04:00 +26°C° 0.2 mm 2 mps 759 mmHg 67%
    05:00 +26°C° 0.2 mm 2 mps 759 mmHg 67%
    06:00 +27°C° 0.2 mm 2 mps 759 mmHg 67%
    07:00 +27°C° 0.2 mm 2 mps 760 mmHg 66%
    08:00 +28°C° 0 mm 2 mps 760 mmHg 64%
    09:00 +29°C° 0 mm 2 mps 760 mmHg 62%
    10:00 +30°C° 0 mm 1 mps 761 mmHg 59%
    11:00 +30°C° 0 mm 1 mps 760 mmHg 56%
    12:00 +31°C° 0 mm 1 mps 760 mmHg 53%
    13:00 +32°C° 0 mm 2 mps 760 mmHg 50%
    14:00 +32°C° 0 mm 2 mps 760 mmHg 52%
    15:00 +31°C° 0 mm 3 mps 759 mmHg 54%
    16:00 +31°C° 0 mm 3 mps 759 mmHg 56%
    17:00 +29°C° 0 mm 3 mps 759 mmHg 61%
    18:00 +28°C° 0 mm 2 mps 760 mmHg 67%
    19:00 +27°C° 0 mm 1 mps 760 mmHg 72%
    20:00 +27°C° 0 mm 1 mps 760 mmHg 72%
    21:00 +26°C° 0 mm 2 mps 761 mmHg 72%
    22:00 +26°C° 0 mm 2 mps 761 mmHg 73%
    23:00 +26°C° 0.1 mm 2 mps 761 mmHg 74%

    Tomorrow, 20 September, Friday

    Time Temperature Precipitation Wind Pressure Humidity
    00:00 +26°C° 0.1 mm 2 mps 761 mmHg 76%
    01:00 +25°C° 0.1 mm 2 mps 760 mmHg 77%
    02:00 +25°C° 0 mm 2 mps 760 mmHg 78%
    03:00 +25°C° 0 mm 2 mps 760 mmHg 78%
    04:00 +25°C° 0 mm 2 mps 759 mmHg 79%
    05:00 +25°C° 0 mm 2 mps 759 mmHg 79%
    06:00 +25°C° 0 mm 2 mps 759 mmHg 79%
    07:00 +25°C° 0 mm 2 mps 759 mmHg 79%
    08:00 +27°C° 0 mm 2 mps 759 mmHg 73%
    09:00 +28°C° 0 mm 2 mps 760 mmHg 67%
    10:00 +30°C° 0 mm 2 mps 760 mmHg 61%
    11:00 +30°C° 0 mm 2 mps 760 mmHg 59%
    12:00 +31°C° 0 mm 3 mps 760 mmHg 56%
    13:00 +33°C° 0 mm 3 mps 759 mmHg 54%
    14:00 +33°C° 0 mm 3 mps 759 mmHg 56%
    15:00 +32°C° 0 mm 4 mps 759 mmHg 58%
    16:00 +32°C° 0 mm 4 mps 759 mmHg 60%
    17:00 +30°C° 0 mm 4 mps 759 mmHg 66%
    18:00 +29°C° 0 mm 4 mps 760 mmHg 72%
    19:00 +27°C° 0 mm 3 mps 760 mmHg 78%
    20:00 +27°C° 0 mm 3 mps 760 mmHg 79%
    21:00 +27°C° 0 mm 2 mps 761 mmHg 79%
    22:00 +27°C° 0 mm 2 mps 761 mmHg 80%
    23:00 +27°C° 0 mm 2 mps 761 mmHg 77%

    Day after tomorrow, 21 September, Saturday

    Time Temperature Precipitation Wind Pressure Humidity
    00:00 +27°C° 0 mm 1 mps 760 mmHg 73%
    01:00 +27°C° 0 mm 1 mps 760 mmHg 70%
    02:00 +27°C° 0 mm 1 mps 760 mmHg 66%
    03:00 +28°C° 0 mm 2 mps 759 mmHg 63%
    04:00 +28°C° 0 mm 2 mps 759 mmHg 59%
    05:00 +28°C° 0.3 mm 2 mps 759 mmHg 59%
    06:00 +28°C° 0.3 mm 2 mps 759 mmHg 58%
    07:00 +28°C° 0.3 mm 3 mps 759 mmHg 58%
    08:00 +29°C° 0.2 mm 2 mps 760 mmHg 53%
    09:00 +31°C° 0.2 mm 2 mps 760 mmHg 49%
    10:00 +32°C° 0.2 mm 2 mps 760 mmHg 44%
    11:00 +35°C° 0 mm 2 mps 760 mmHg 41%
    12:00 +36°C° 0 mm 3 mps 760 mmHg 38%
    13:00 +37°C° 0 mm 3 mps 759 mmHg 35%
    14:00 +37°C° 0 mm 3 mps 759 mmHg 37%
    15:00 +36°C° 0 mm 3 mps 759 mmHg 39%
    16:00 +35°C° 0 mm 3 mps 758 mmHg 41%
    17:00 +34°C° 0 mm 3 mps 759 mmHg 45%
    18:00 +33°C° 0 mm 3 mps 759 mmHg 49%
    19:00 +30°C° 0 mm 3 mps 759 mmHg 53%
    20:00 +30°C° 0 mm 3 mps 759 mmHg 54%
    21:00 +30°C° 0 mm 3 mps 759 mmHg 55%
    22:00 +29°C° 0 mm 3 mps 760 mmHg 56%
    23:00 +29°C° 0 mm 3 mps 759 mmHg 57%

    22 September, Sunday

    Time Temperature Precipitation Wind Pressure Humidity
    00:00 +29°C° 0 mm 3 mps 759 mmHg 59%
    01:00 +28°C° 0 mm 3 mps 759 mmHg 60%
    02:00 +28°C° 0 mm 3 mps 759 mmHg 62%
    03:00 +28°C° 0 mm 4 mps 758 mmHg 64%
    04:00 +28°C° 0 mm 4 mps 758 mmHg 66%
    05:00 +28°C° 0 mm 3 mps 758 mmHg 64%
    06:00 +29°C° 0 mm 3 mps 758 mmHg 62%
    07:00 +29°C° 0 mm 3 mps 758 mmHg 60%
    08:00 +30°C° 0 mm 2 mps 759 mmHg 56%
    09:00 +31°C° 0 mm 2 mps 759 mmHg 51%
    10:00 +33°C° 0 mm 1 mps 759 mmHg 46%
    11:00 +35°C° 0 mm 2 mps 759 mmHg 42%
    12:00 +36°C° 0 mm 2 mps 759 mmHg 39%
    13:00 +37°C° 0 mm 3 mps 758 mmHg 35%
    14:00 +35°C° 0 mm 3 mps 758 mmHg 43%
    15:00 +33°C° 0 mm 3 mps 758 mmHg 50%
    16:00 +31°C° 0 mm 3 mps 758 mmHg 57%
    17:00 +30°C° 0 mm 3 mps 758 mmHg 59%
    18:00 +29°C° 0 mm 3 mps 758 mmHg 61%
    19:00 +29°C° 0 mm 2 mps 759 mmHg 63%
    20:00 +29°C° 0 mm 2 mps 759 mmHg 63%
    21:00 +29°C° 0 mm 2 mps 760 mmHg 63%
    22:00 +28°C° 0 mm 2 mps 760 mmHg 63%
    23:00 +28°C° 0 mm 3 mps 760 mmHg 65%

    23 September, Monday

    Time Temperature Precipitation Wind Pressure Humidity
    00:00 +28°C° 0 mm 3 mps 760 mmHg 67%
    01:00 +27°C° 0 mm 4 mps 760 mmHg 69%
    02:00 +27°C° 0 mm 3 mps 760 mmHg 72%
    03:00 +26°C° 0 mm 3 mps 760 mmHg 75%
    04:00 +26°C° 0 mm 3 mps 761 mmHg 78%
    05:00 +26°C° 0 mm 3 mps 761 mmHg 80%
    06:00 +26°C° 0 mm 3 mps 761 mmHg 81%
    07:00 +26°C° 0 mm 3 mps 761 mmHg 82%
    08:00 +27°C° 0 mm 3 mps 761 mmHg 76%
    09:00 +28°C° 0 mm 3 mps 762 mmHg 71%
    10:00 +29°C° 0 mm 3 mps 762 mmHg 65%
    11:00 +30°C° 0 mm 3 mps 762 mmHg 62%
    12:00 +30°C° 0 mm 3 mps 762 mmHg 60%
    13:00 +32°C° 0 mm 4 mps 761 mmHg 57%
    14:00 +30°C° 0 mm 4 mps 761 mmHg 59%
    15:00 +30°C° 0 mm 4 mps 761 mmHg 60%
    16:00 +29°C° 0 mm 4 mps 760 mmHg 61%
    17:00 +28°C° 0 mm 3 mps 761 mmHg 68%
    18:00 +27°C° 0 mm 2 mps 761 mmHg 74%
    19:00 +25°C° 0 mm 2 mps 761 mmHg 81%
    20:00 +25°C° 0 mm 1 mps 762 mmHg 83%
    21:00 +25°C° 0 mm 1 mps 762 mmHg 84%
    22:00 +25°C° 0 mm 1 mps 763 mmHg 86%
    23:00 +24°C° 0 mm 1 mps 763 mmHg 87%

    24 September, Tuesday

    Time Temperature Precipitation Wind Pressure Humidity
    00:00 +24°C° 0 mm 1 mps 763 mmHg 88%
    01:00 +24°C° 0 mm 1 mps 763 mmHg 89%
    02:00 +24°C° 0 mm 1 mps 762 mmHg 90%
    03:00 +24°C° 0 mm 1 mps 762 mmHg 91%
    04:00 +23°C° 0 mm 1 mps 762 mmHg 91%
    05:00 +24°C° 0 mm 1 mps 762 mmHg 90%
    06:00 +22°C° 0 mm 0 mps 762 mmHg 89%
    07:00 +22°C° 0 mm 0 mps 762 mmHg 88%
    08:00 +25°C° 0 mm 1 mps 762 mmHg 81%
    09:00 +26°C° 0 mm 1 mps 763 mmHg 74%
    10:00 +28°C° 0 mm 1 mps 763 mmHg 67%
    11:00 +28°C° 0 mm 2 mps 762 mmHg 64%
    12:00 +29°C° 0 mm 2 mps 762 mmHg 60%
    13:00 +30°C° 0 mm 3 mps 762 mmHg 57%
    14:00 +29°C° 0 mm 3 mps 762 mmHg 57%
    15:00 +29°C° 0 mm 4 mps 761 mmHg 58%
    16:00 +28°C° 0 mm 4 mps 761 mmHg 59%
    17:00 +27°C° 0 mm 3 mps 761 mmHg 63%
    18:00 +26°C° 0 mm 3 mps 761 mmHg 66%
    19:00 +25°C° 0 mm 2 mps 761 mmHg 70%
    20:00 +24°C° 0 mm 2 mps 762 mmHg 71%
    21:00 +24°C° 0 mm 1 mps 762 mmHg 72%
    22:00 +24°C° 0 mm 1 mps 762 mmHg 73%
    23:00 +23°C° 0 mm 1 mps 762 mmHg 74%
    Show more